Weather History for Salmon, ID

Change the Weather History Date:

Tuesday, March 4, 2014

  Actual Average Record
Temperature  
Mean Temperature 36 °F -  
Max Temperature 42 °F 37 °F 70 °F (1987)
Min Temperature 30 °F 19 °F -2 °F (1976)
Degree Days  
Heating Degree Days 29    
Moisture  
Dew Point 31 °F    
Average Humidity 82    
Maximum Humidity 93    
Minimum Humidity 57    
Precipitation  
Precipitation 0.01 in - - ()
Sea Level Pressure  
Sea Level Pressure 29.98 in    
Wind  
Wind Speed 3 mph (ESE)    
Max Wind Speed 10 mph    
Max Gust Speed -    
Visibility 9 miles    
Events      
Averages and records for this station are not official NWS values.
T = Trace of Precipitation, MM = Missing Value Source: NWS Daily Summary

Daily Weather History Graph

Daily Weather History Graph

Search for Another Location

Airport:

Trip Planner

Search our weather history database for the weather conditions in past years. The results will help you decide how hot, cold, wet, or windy it might be!

Date:

Astronomy

Mar. 04, 2014 Rise Set
Actual Time 7:08 AM MST 6:27 PM MST
Civil Twilight 6:38 AM MST 6:56 PM MST
Nautical Twilight 6:04 AM MST 7:30 PM MST
Astronomical Twilight 5:30 AM MST 8:04 PM MST
Moon 8:45 AM MST (3/4) 10:51 PM MST (3/4)
Length of Visible Light 12h 17m
Length of Day
11h 19m
Waxing Crescent, 15% of the Moon is Illuminated
Mar 4
Waxing Crescent
Mar 8
First Quarter
Mar 16
Full
Mar 23
Last Quarter
Mar 30
New

Hourly Weather History & Observations

Time (MST) Temp. Windchill Dew Point Humidity Pressure Visibility Wind Dir Wind Speed Gust Speed Precip Events Conditions
12:15 AM 33.8 °F 26.4 °F 30.2 °F 87% 29.90 in 10.0 mi South 9.2 mph - N/A   Overcast
12:35 AM 35.6 °F 29.9 °F 32.0 °F 87% 29.90 in 10.0 mi SSW 6.9 mph - N/A   Mostly Cloudy
12:55 AM 35.6 °F - 32.0 °F 87% 29.90 in 10.0 mi Calm Calm - N/A   Mostly Cloudy
1:15 AM 35.6 °F 31.7 °F 32.0 °F 87% 29.91 in 10.0 mi East 4.6 mph - N/A   Overcast
1:35 AM 35.6 °F - 30.2 °F 81% 29.91 in 10.0 mi Calm Calm - N/A   Overcast
1:55 AM 33.8 °F 30.8 °F 32.0 °F 93% 29.91 in 10.0 mi NNW 3.5 mph - 0.01 in   Overcast
2:15 AM 35.6 °F - 32.0 °F 87% 29.91 in 10.0 mi Calm Calm - N/A   Overcast
2:35 AM 33.8 °F 30.8 °F 30.2 °F 87% 29.91 in 10.0 mi North 3.5 mph - N/A   Overcast
2:55 AM 33.8 °F 30.8 °F 30.2 °F 87% 29.91 in 10.0 mi SSW 3.5 mph - N/A   Overcast
3:15 AM 33.8 °F - 30.2 °F 87% 29.91 in 10.0 mi Calm Calm - N/A   Overcast
3:35 AM 33.8 °F 29.6 °F 30.2 °F 87% 29.92 in 10.0 mi SSW 4.6 mph - N/A   Overcast
3:55 AM 33.8 °F 29.6 °F 30.2 °F 87% 29.91 in 10.0 mi South 4.6 mph - N/A   Overcast
4:15 AM 33.8 °F 29.6 °F 30.2 °F 87% 29.92 in 10.0 mi SSE 4.6 mph - N/A   Overcast
4:35 AM 33.8 °F - 30.2 °F 87% 29.92 in 10.0 mi Calm Calm - N/A   Overcast
4:55 AM 32.0 °F - 30.2 °F 93% 29.93 in 10.0 mi Calm Calm - N/A   Overcast
5:15 AM 33.8 °F 29.6 °F 30.2 °F 87% 29.93 in 10.0 mi South 4.6 mph - N/A   Overcast
5:35 AM 33.8 °F - 30.2 °F 87% 29.94 in 10.0 mi Calm Calm - N/A   Overcast
5:55 AM 32.0 °F 27.5 °F 30.2 °F 93% 29.93 in 10.0 mi ENE 4.6 mph - N/A   Overcast
6:15 AM 32.0 °F 27.5 °F 30.2 °F 93% 29.95 in 6.0 mi NNW 4.6 mph - N/A   Overcast
6:35 AM 32.0 °F 23.6 °F 30.2 °F 93% 29.94 in 7.0 mi SSE 10.4 mph - N/A   Overcast
6:55 AM 33.8 °F 28.6 °F 32.0 °F 93% 29.95 in 10.0 mi SE 5.8 mph - N/A   Mostly Cloudy
7:15 AM 32.0 °F - 30.2 °F 93% 29.97 in 7.0 mi Calm Calm - N/A   Mostly Cloudy
7:35 AM 33.8 °F - 30.2 °F 87% 29.97 in 9.0 mi Calm Calm - N/A   Overcast
7:55 AM 32.0 °F 26.4 °F 30.2 °F 93% 29.97 in 3.0 mi NNW 5.8 mph - N/A   Mostly Cloudy
8:15 AM 32.0 °F 27.5 °F 30.2 °F 93% 29.98 in 2.0 mi North 4.6 mph - N/A   Overcast
8:35 AM 32.0 °F - 30.2 °F 93% 29.98 in 1.0 mi Calm Calm - N/A   Overcast
8:55 AM 33.8 °F - 30.2 °F 87% 29.99 in 0.2 mi Calm Calm - N/A   Overcast
9:15 AM 33.8 °F - 32.0 °F 93% 29.99 in 8.0 mi Calm Calm - N/A   Overcast
9:35 AM 33.8 °F 28.6 °F 32.0 °F 93% 29.99 in 10.0 mi West 5.8 mph - N/A   Overcast
9:55 AM 33.8 °F - 32.0 °F 93% 30.00 in 9.0 mi Calm Calm - N/A   Overcast
10:15 AM 33.8 °F - 32.0 °F 93% 30.00 in 10.0 mi Calm Calm - N/A   Overcast
10:35 AM 35.6 °F - 33.8 °F 93% 30.00 in 10.0 mi Calm Calm - N/A   Overcast
10:55 AM 37.4 °F - 32.0 °F 81% 30.00 in 9.0 mi Calm Calm - N/A   Overcast
11:15 AM 35.6 °F 32.8 °F 30.2 °F 81% 30.00 in 10.0 mi NNE 3.5 mph - N/A   Overcast
11:35 AM 35.6 °F - 32.0 °F 87% 30.00 in 10.0 mi Calm Calm - N/A   Overcast
11:55 AM 37.4 °F - 32.0 °F 81% 30.00 in 10.0 mi Calm Calm - N/A   Overcast
12:15 PM 37.4 °F - 33.8 °F 87% 30.00 in 10.0 mi Calm Calm - N/A   Mostly Cloudy
12:35 PM 37.4 °F 34.9 °F 32.0 °F 81% 30.00 in 10.0 mi WSW 3.5 mph - N/A   Mostly Cloudy
12:55 PM 37.4 °F 34.9 °F 32.0 °F 81% 29.99 in 10.0 mi East 3.5 mph - N/A   Mostly Cloudy
1:15 PM 37.4 °F 34.9 °F 30.2 °F 75% 30.00 in 10.0 mi WSW 3.5 mph - N/A   Mostly Cloudy
1:35 PM 37.4 °F 34.9 °F 32.0 °F 81% 29.99 in 10.0 mi West 3.5 mph - N/A   Overcast
1:55 PM 39.2 °F 37.0 °F 33.8 °F 81% 29.99 in 10.0 mi NW 3.5 mph - N/A   Overcast
2:15 PM 41.0 °F 38.0 °F 33.8 °F 76% 29.98 in 10.0 mi NE 4.6 mph - N/A   Mostly Cloudy
2:35 PM 41.0 °F - 32.0 °F 70% 29.99 in 10.0 mi Calm Calm - N/A   Mostly Cloudy
2:55 PM 42.8 °F 39.3 °F 33.8 °F 70% 29.99 in 10.0 mi NW 5.8 mph - N/A   Overcast
3:15 PM 42.8 °F 38.6 °F 33.8 °F 70% 29.99 in 10.0 mi North 6.9 mph - N/A   Mostly Cloudy
3:35 PM 42.8 °F 40.1 °F 32.0 °F 66% 29.99 in 10.0 mi North 4.6 mph - N/A   Mostly Cloudy
3:55 PM 42.8 °F - 33.8 °F 70% 29.99 in 10.0 mi Calm Calm - N/A   Overcast
4:15 PM 42.8 °F - 30.2 °F 61% 29.98 in 10.0 mi Calm Calm - N/A   Mostly Cloudy
4:35 PM 42.8 °F - 30.2 °F 61% 29.98 in 10.0 mi Calm Calm - N/A   Scattered Clouds
4:55 PM 42.8 °F - 30.2 °F 61% 29.97 in 10.0 mi Calm Calm - N/A   Scattered Clouds
5:15 PM 42.8 °F 41.1 °F 30.2 °F 61% 29.97 in 10.0 mi NNE 3.5 mph - N/A   Mostly Cloudy
5:35 PM 42.8 °F - 28.4 °F 57% 29.98 in 10.0 mi Calm Calm - N/A   Mostly Cloudy
5:55 PM 42.8 °F - 30.2 °F 61% 29.98 in 10.0 mi Calm Calm - N/A   Overcast
6:15 PM 41.0 °F - 30.2 °F 65% 29.99 in 10.0 mi Calm Calm - N/A   Partly Cloudy
6:35 PM 37.4 °F 33.8 °F 28.4 °F 70% 29.99 in 10.0 mi SE 4.6 mph - N/A   Scattered Clouds
6:55 PM 37.4 °F 33.8 °F 30.2 °F 75% 30.00 in 10.0 mi SE 4.6 mph - N/A   Mostly Cloudy
7:15 PM 35.6 °F 31.7 °F 30.2 °F 81% 30.01 in 10.0 mi ENE 4.6 mph - N/A   Partly Cloudy
7:35 PM 35.6 °F - 28.4 °F 75% 30.02 in 10.0 mi Calm Calm - N/A   Clear
7:55 PM 33.8 °F 29.6 °F 26.6 °F 75% 30.02 in 10.0 mi SE 4.6 mph - N/A   Clear
8:15 PM 33.8 °F - 28.4 °F 81% 30.03 in 10.0 mi Calm Calm - N/A   Clear
8:35 PM 33.8 °F 30.8 °F 28.4 °F 81% 30.03 in 10.0 mi SSE 3.5 mph - N/A   Partly Cloudy
8:55 PM 32.0 °F 27.5 °F 28.4 °F 87% 30.03 in 10.0 mi SSE 4.6 mph - N/A   Partly Cloudy
9:15 PM 33.8 °F - 28.4 °F 81% 30.03 in 10.0 mi Calm Calm - N/A   Mostly Cloudy
9:35 PM 32.0 °F - 26.6 °F 80% 30.03 in 10.0 mi Calm Calm - N/A   Overcast
9:55 PM 30.2 °F - 28.4 °F 93% 30.04 in 10.0 mi Calm Calm - N/A   Overcast
10:15 PM 32.0 °F - 28.4 °F 87% 30.05 in 10.0 mi Calm Calm - N/A   Overcast
10:35 PM 32.0 °F - 28.4 °F 87% 30.04 in 10.0 mi Calm Calm - N/A   Mostly Cloudy
10:55 PM 30.2 °F 25.4 °F 26.6 °F 86% 30.04 in 10.0 mi SSE 4.6 mph - N/A   Mostly Cloudy
11:15 PM 32.0 °F - 28.4 °F 87% 30.04 in 10.0 mi Calm Calm - N/A   Overcast
11:35 PM 32.0 °F - 26.6 °F 80% 30.04 in 10.0 mi Calm Calm - N/A   Overcast
11:55 PM 30.2 °F - 28.4 °F 93% 30.04 in 10.0 mi Calm Calm - N/A   Overcast